This is the latest recevied weather packets stored in our database for station/object KE6LRO. If no packets are shown the sender has not sent any weather packets the latest 10 day(s).
| Time | Temp. | Humidity | Pressure | Rain* | Wind** | Luminosity | Snow |
|---|---|---|---|---|---|---|---|
| 1778120244 | 18.89° C | 45% | 1015.5 hPa | 0 mm | - | 15 W/m² | - |
| 1778119940 | 19.44° C | 41% | 1015.6 hPa | 0 mm | - | 18 W/m² | - |
| 1778119639 | 19.44° C | 43% | 1015.6 hPa | 0 mm | - | 21 W/m² | - |
| 1778119334 | 19.44° C | 38% | 1015.6 hPa | 0 mm | - | 23 W/m² | - |
| 1778119032 | 19.44° C | 46% | 1015.4 hPa | 0 mm | - | 29 W/m² | - |
| 1778118730 | 19.44° C | 43% | 1015.4 hPa | 0 mm | - | 34 W/m² | - |
| 1778118426 | 19.44° C | 41% | 1015.5 hPa | 0 mm | - | 34 W/m² | - |
| 1778118122 | 20° C | 43% | 1015.6 hPa | 0 mm | - | 34 W/m² | - |
| 1778117819 | 20° C | 40% | 1015.5 hPa | 0 mm | - | 38 W/m² | - |
| 1778117516 | 20.56° C | 39% | 1015.4 hPa | 0 mm | - | 44 W/m² | - |
| 1778117214 | 20.56° C | 36% | 1015.5 hPa | 0 mm | - | 48 W/m² | - |
| 1778116909 | 20.56° C | 38% | 1015.3 hPa | 0 mm | - | 51 W/m² | - |
| 1778116607 | 21.11° C | 37% | 1015.5 hPa | 0 mm | - | 56 W/m² | - |
| 1778116303 | 21.11° C | 35% | 1015.5 hPa | 0 mm | - | 61 W/m² | - |
| 1778115998 | 21.11° C | 35% | 1015.5 hPa | 0 mm | - | 78 W/m² | - |
| 1778115694 | 21.67° C | 35% | 1015.5 hPa | 0 mm | - | 100 W/m² | - |
| 1778115392 | 21.67° C | 34% | 1015.4 hPa | 0 mm | - | 97 W/m² | - |
| 1778115088 | 21.67° C | 35% | 1015.5 hPa | 0 mm | - | 107 W/m² | - |
| 1778114785 | 21.67° C | 34% | 1015.2 hPa | 0 mm | - | 122 W/m² | - |
| 1778114482 | 21.67° C | 34% | 1015.6 hPa | 0 mm | - | 130 W/m² | - |
| 1778114178 | 21.67° C | 33% | 1015.5 hPa | 0 mm | - | 155 W/m² | - |
| 1778113873 | 21.67° C | 33% | 1015.6 hPa | 0 mm | - | 147 W/m² | - |
| 1778113570 | 21.67° C | 33% | 1015.6 hPa | 0 mm | - | 130 W/m² | - |
| 1778113266 | 21.67° C | 34% | 1015.6 hPa | 0 mm | - | 138 W/m² | - |
| 1778112962 | 21.67° C | 34% | 1015.6 hPa | 0 mm | - | 151 W/m² | - |
* Rain latest hour (hover to see other rain measurements)
** Current wind speed in m/s (hover to see current wind gust speed)